Location: Ladrillo (historical)
(32.8195°N, 117.2231°W)
Time: 19:05:01
(UTC+00:00)

NOAA 18 - Pass Details

Date: 23 April 2021
Orbit: 840 x 861 km, 99.0° (Epoch: 05 May)

Event Time Altitude Azimuth Distance (km) Brightness Sun altitude
Exits shadow 06:38:12 11° 289° (WNW) 2,403 7.9 -41.7°
Drops below altitude 10° 06:38:36 10° 293° (WNW) 2,461 8.0 -41.7°
Sets 06:42:30 0° 321° (NW) 3,398 9.1 -42.0°
